NigeriaSat-1

operational
NORAD ID: 27941 Int'l Des: 2003-042 Owner: NSRDA Country: NG
LEOCIRCULARRETROGRADESSO

Über NigeriaSat-1

Beschreibung wird geladen...

Live-Position

3D-Globus wird geladen...

Nächste Überflüge

Höhenverlauf

Altitude vs Time

uPlot chart will show altitude changes over time

Zweizeiliger Elementsatz

1 27941U 03042C 26062.12135141 .00002088 00000-0 21946-3 0 9999
2 27941 98.0052 252.5307 0041240 278.8284 80.8265 14.89987542208032
Epoch: 3. März 2026 • Age: 17 hours

Aktueller Status

Höhe 592.6 km
Geschwindigkeit 7.57 km/s
Subsatellitenpunkt -45.16°S, 158.5°W
Startdatum 27. Sept. 2003
Alter 22.4 years
Typ other

Technische Details

Klassifizierung Payload
Masse 80.00 kg
Trockenmasse 80.00 kg
Gesamtmasse 80.00 kg
Länge 0.60 m
Durchmesser 0.60 m
Spannweite 6.60 m
Form Box + Ant
Hersteller SSTL
Bus-Typ SSTL-100
Phasenstatus In Orbit
Besitzer/Staat NSRDA/NG

Große Konstellationen

Loading constellations...